Orbital Elements at Epoch 2459200.5 (2020-Dec-17.0) TDB
Reference: JPL 17 (heliocentric ecliptic J2000)
Element | Value | Uncertainty (1-sigma) | Units |
e | .08710984882061823 | 5.7517e-08 | |
a | 2.598417279255551 | 1.7842e-08 | au |
q | 2.372069542886718 | 1.4951e-07 | au |
i | 14.39206088580645 | 4.8114e-06 | deg |
node | 122.9504913113185 | 2.426e-05 | deg |
peri | 84.40993754404526 | 3.8108e-05 | deg |
M | 317.2078167851056 | 3.2333e-05 | deg |
tp | 2459382.354358320925 (2021-Jun-16.85435832) | 0.00013826 | TDB |
period | 1529.895510747067 4.19 | 1.5757e-05 4.314e-08 | d yr |
n | .2353101878338133 | 2.4236e-09 | deg/d |
Q | 2.824765015624384 | 1.9396e-08 | au |
|
| | Orbit Determination Parameters
Additional Information
|